Weather History for Tel Aviv, Israel

Change the Weather History Date:

Tuesday, December 10, 2013

  Actual Average Record
Temperature  
Mean Temperature 53 °F -  
Max Temperature 60 °F 64 °F 75 °F (2005)
Min Temperature 46 °F 49 °F 46 °F (1999)
Degree Days  
Heating Degree Days 12    
Growing Degree Days 3 (Base 50)    
Moisture  
Dew Point 44 °F    
Average Humidity 68    
Maximum Humidity 82    
Minimum Humidity 45    
Precipitation  
Precipitation 0.20 in - - ()
Sea Level Pressure  
Sea Level Pressure 30.09 in    
Wind  
Wind Speed 4 mph ()    
Max Wind Speed 12 mph    
Max Gust Speed -    
Visibility 6.2 miles    
Events Rain    
Averages and records for this station are not official NWS values.
T = Trace of Precipitation, MM = Missing Value Source: Averaged Metar Reports

Daily Weather History Graph

Daily Weather History Graph

Search for Another Location

Airport:

Trip Planner

Search our weather history database for the weather conditions in past years. The results will help you decide how hot, cold, wet, or windy it might be!

Date:

Astronomy

Dec. 10, 2013 Rise Set
Actual Time 6:30 AM IST 4:36 PM IST
Civil Twilight 6:03 AM IST 5:03 PM IST
Nautical Twilight 5:32 AM IST 5:33 PM IST
Astronomical Twilight 5:02 AM IST 6:03 PM IST
Moon 12:07 PM IST (12/10) No Moon Set
Length of Visible Light 11h 00m
Length of Day
10h 06m
First Quarter, 58% of the Moon is Illuminated
Dec 10
First Quarter
Dec 17
Full
Dec 25
Last Quarter
Jan 1
New
Jan 8
First Quarter

Hourly Weather History & Observations

Time (IST) Temp. Windchill Dew Point Humidity Pressure Visibility Wind Dir Wind Speed Gust Speed Precip Events Conditions
12:20 AM 51.8 °F - 42.8 °F 71% 30.21 in 6.2 mi Variable 3.5 mph - N/A   Partly Cloudy
12:50 AM 51.8 °F - 42.8 °F 71% 30.21 in 6.2 mi Variable 1.2 mph - N/A   Partly Cloudy
1:20 AM 51.8 °F - 41.0 °F 67% 30.18 in 6.2 mi Variable 3.5 mph - N/A   Partly Cloudy
1:50 AM 51.8 °F - 41.0 °F 67% 30.18 in - NNE 4.6 mph - N/A   Clear
2:00 AM 51 °F - 41 °F 60% 30.21 in 6 mi NNE 4.6 mph - -  
2:20 AM 50.0 °F - 41.0 °F 71% 30.18 in - East 4.6 mph - N/A   Clear
2:50 AM 50.0 °F - 41.0 °F 71% 30.18 in - Variable 2.3 mph - N/A   Clear
3:20 AM 48.2 °F - 41.0 °F 76% 30.18 in - Variable 3.5 mph - N/A   Clear
3:50 AM 48.2 °F - 41.0 °F 76% 30.15 in - Variable 3.5 mph - N/A   Clear
4:20 AM 48.2 °F - 41.0 °F 76% 30.15 in - Variable 2.3 mph - N/A   Clear
4:50 AM 46.4 °F 45.2 °F 41.0 °F 81% 30.15 in - Variable 3.5 mph - N/A   Clear
5:20 AM 46.4 °F - 41.0 °F 81% 30.15 in - Variable 2.3 mph - N/A   Clear
5:50 AM 48.2 °F - 41.0 °F 76% 30.15 in - Variable 3.5 mph - N/A   Clear
6:20 AM 48.2 °F - 39.2 °F 71% 30.15 in - East 4.6 mph - N/A   Clear
6:50 AM 48.2 °F - 39.2 °F 71% 30.15 in 6.2 mi East 5.8 mph - N/A   Scattered Clouds
7:20 AM 50.0 °F - 39.2 °F 66% 30.15 in - ESE 6.9 mph - N/A   Clear
7:50 AM 50.0 °F - 41.0 °F 71% 30.15 in - Variable 2.3 mph - N/A   Clear
8:00 AM 51 °F - 41 °F 59% 30.18 in 6 mi 2.3 mph - -   Scattered Clouds
8:20 AM 53.6 °F - 41.0 °F 62% 30.15 in - ESE 4.6 mph - N/A   Clear
8:50 AM 55.4 °F - 39.2 °F 54% 30.15 in - ESE 5.8 mph - N/A   Clear
9:20 AM 59.0 °F - 37.4 °F 45% 30.15 in - ESE 4.6 mph - N/A   Clear
9:50 AM 59.0 °F - 37.4 °F 45% 30.12 in - Variable 3.5 mph - N/A   Clear
10:20 AM 59.0 °F - 39.2 °F 48% 30.12 in 6.2 mi Variable 1.2 mph - N/A   Scattered Clouds
10:50 AM 59.0 °F - 37.4 °F 45% 30.12 in 6.2 mi SSW 4.6 mph - N/A   Scattered Clouds
11:20 AM 59.0 °F - 39.2 °F 48% 30.12 in 6.2 mi Variable 3.5 mph - N/A   Scattered Clouds
11:50 AM 59.0 °F - 39.2 °F 48% 30.09 in 6.2 mi WSW 4.6 mph - N/A   Mostly Cloudy
12:20 PM 59.0 °F - 39.2 °F 48% 30.09 in 6.2 mi WSW 6.9 mph - N/A Rain Light Rain
12:50 PM 57.2 °F - 44.6 °F 63% 30.09 in 6.2 mi WSW 6.9 mph - N/A Rain Light Rain
1:20 PM 59.0 °F - 44.6 °F 59% 30.06 in 6.2 mi Variable 1.2 mph - N/A   Scattered Clouds
1:50 PM 59.0 °F - 42.8 °F 55% 30.06 in 6.2 mi SSE 5.8 mph - N/A   Partly Cloudy
2:00 PM 58 °F - 43 °F 47% 30.08 in 6 mi SSE 5.8 mph - -   Partly Cloudy
2:20 PM 59.0 °F - 42.8 °F 55% 30.06 in 6.2 mi SE 6.9 mph - N/A   Partly Cloudy
2:50 PM 59.0 °F - 42.8 °F 55% 30.06 in 6.2 mi SE 5.8 mph - N/A   Scattered Clouds
3:20 PM 59.0 °F - 44.6 °F 59% 30.04 in 6.2 mi SSE 6.9 mph - N/A   Scattered Clouds
3:50 PM 59.0 °F - 46.4 °F 63% 30.04 in 6.2 mi SSE 5.8 mph - N/A   Scattered Clouds
4:20 PM 57.2 °F - 48.2 °F 72% 30.04 in 6.2 mi SSW 5.8 mph - N/A Rain Light Rain
4:50 PM 57.2 °F - 48.2 °F 72% 30.04 in 6.2 mi Variable 3.5 mph - N/A Rain Light Rain
5:50 PM 57.2 °F - 48.2 °F 72% 30.01 in 6.2 mi SSE 6.9 mph - N/A   Scattered Clouds
6:20 PM 55.4 °F - 50.0 °F 82% 30.01 in - SSE 6.9 mph - N/A   Clear
6:50 PM 55.4 °F - 50.0 °F 82% 30.04 in 6.2 mi South 9.2 mph - N/A   Scattered Clouds
7:20 PM 55.4 °F - 50.0 °F 82% 30.04 in 6.2 mi South 4.6 mph - N/A Rain Light Rain
7:50 PM 55.4 °F - 50.0 °F 82% 30.04 in 6.2 mi SE 8.1 mph - N/A   Partly Cloudy
8:00 PM 55 °F - 50 °F 76% 30.04 in 6 mi SE 8.1 mph - - Rain Light Rain
8:20 PM 55.4 °F - 50.0 °F 82% 30.01 in 6.2 mi SSE 9.2 mph - N/A   Partly Cloudy
8:50 PM 55.4 °F - 50.0 °F 82% 30.01 in - SSE 8.1 mph - N/A   Clear
9:20 PM 55.4 °F - 50.0 °F 82% 30.01 in 6.2 mi SSE 8.1 mph - N/A   Partly Cloudy
9:50 PM 55.4 °F - 50.0 °F 82% 29.98 in 6.2 mi SSE 9.2 mph - N/A   Scattered Clouds
10:20 PM 55.4 °F - 50.0 °F 82% 29.98 in 6.2 mi South 10.4 mph - N/A   Scattered Clouds
10:50 PM 55.4 °F - 50.0 °F 82% 29.95 in - South 10.4 mph - N/A   Clear
11:20 PM 55.4 °F - 50.0 °F 82% 29.95 in 6.2 mi South 9.2 mph - N/A Rain Light Rain
11:50 PM 55.4 °F - 50.0 °F 82% 29.92 in 6.2 mi South 11.5 mph - N/A   Scattered Clouds